User: anonymous   Login
Location: NJAA Observatory
(40.6819°N, 74.8979°W)
Time: 18:58:33
(UTC-05:00)
Language:

Cosmos 1461 - Orbit

View from above orbital plane
View from above orbital plane
View from above satellite
View from above satellite

Ground track
Ground track

The orbit data is extracted from the following two-line orbital elements,

1 14064U 83044A   15064.22417656  .00006175  00000-0  57854-3 0  9994
2 14064 065.0061 344.2430 0105682 005.9983 354.2368 14.90708564598738
Epoch (UTC): 05 March 2015 05:22:48
Eccentricity: 0.0105682
inclination: 65.0061°
perigee height: 522 km
apogee height: 669 km
right ascension of ascending node: 344.2430°
argument of perigee: 5.9983°
revolutions per day: 14.90708564
mean anomaly at epoch: 354.2368°
orbit number at epoch: 59873

The dashed part of the orbit path shows where the satellite is in the earth's shadow,  

DLR